This is the latest recevied weather packets stored in our database for station/object KQ4JKJ. If no packets are shown the sender has not sent any weather packets the latest 10 day(s).
| Time | Temp. | Humidity | Pressure | Rain* | Wind** | Luminosity | Snow |
|---|---|---|---|---|---|---|---|
| 1777468497 | 27.22° C | 80% | 1012.1 hPa | 0 mm | - | 338 W/m² | - |
| 1777468195 | 26.67° C | 81% | 1011.9 hPa | 0 mm | - | 298 W/m² | - |
| 1777467890 | 26.11° C | 82% | 1011.7 hPa | 0 mm | - | 283 W/m² | - |
| 1777467586 | 26.11° C | 84% | 1011.8 hPa | 0 mm | - | 262 W/m² | - |
| 1777467281 | 25.56° C | 84% | 1011.7 hPa | 0 mm | - | 255 W/m² | - |
| 1777466978 | 25.56° C | 83% | 1011.7 hPa | 0 mm | - | 145 W/m² | - |
| 1777466676 | 25.56° C | 85% | 1011.8 hPa | 0 mm | - | 205 W/m² | - |
| 1777466372 | 25° C | 85% | 1011.7 hPa | 0 mm | - | 215 W/m² | - |
| 1777466068 | 25° C | 85% | 1011.8 hPa | 0 mm | - | 131 W/m² | - |
| 1777465765 | 25° C | 86% | 1011.5 hPa | 0 mm | - | 205 W/m² | - |
| 1777465461 | 24.44° C | 89% | 1011.4 hPa | 0 mm | - | 177 W/m² | - |
| 1777465160 | 23.89° C | 92% | 1011.5 hPa | 0 mm | - | 177 W/m² | - |
| 1777464855 | 22.78° C | 94% | 1011.6 hPa | 0 mm | - | 106 W/m² | - |
| 1777464551 | 22.22° C | 96% | 1011.5 hPa | 0 mm | - | 89 W/m² | - |
| 1777464247 | 22.22° C | 97% | 1011.4 hPa | 0 mm | - | 74 W/m² | - |
| 1777463942 | 22.22° C | 98% | 1011.4 hPa | 0 mm | - | 96 W/m² | - |
| 1777463638 | 21.67° C | 99% | 1011.3 hPa | 0 mm | - | 73 W/m² | - |
| 1777463333 | 21.67° C | 99% | 1010.9 hPa | 0 mm | - | 48 W/m² | - |
| 1777463029 | 21.11° C | 99% | 1011 hPa | 0 mm | - | 52 W/m² | - |
| 1777462725 | 20.56° C | 99% | 1011 hPa | 0 mm | - | 68 W/m² | - |
| 1777462420 | 20.56° C | 99% | 1010.9 hPa | 0 mm | - | 49 W/m² | - |
| 1777462117 | 20° C | 99% | 1010.9 hPa | 0 mm | - | 32 W/m² | - |
| 1777461814 | 20° C | 99% | 1010.8 hPa | 0 mm | - | 28 W/m² | - |
| 1777461509 | 19.44° C | 98% | 1010.6 hPa | 0 mm | - | 22 W/m² | - |
| 1777461206 | 19.44° C | 98% | 1010.4 hPa | 0 mm | - | 19 W/m² | - |
* Rain latest hour (hover to see other rain measurements)
** Current wind speed in m/s (hover to see current wind gust speed)